Weather History for Roanoke, VA

Change the Weather History Date:

Sunday, August 24, 2014

  Actual Average Record
Temperature  
Mean Temperature 69 °F 75 °F  
Max Temperature 73 °F 85 °F 95 °F (2007)
Min Temperature 65 °F 64 °F 50 °F (1997)
Degree Days  
Heating Degree Days 0 0  
Month to date heating degree days 0 0  
Since 1 June heating degree days 0 11  
Since 1 July heating degree days 0 0  
Cooling Degree Days 4 10  
Month to date cooling degree days 159 259  
Year to date cooling degree days 909 982  
Since 1 June cooling degree days 760 866  
Growing Degree Days 18 (Base 50)    
Moisture  
Dew Point 64 °F    
Average Humidity 81    
Maximum Humidity 93    
Minimum Humidity 68    
Precipitation  
Precipitation 0.09 in 0.12 in 1.73 in (1967)
Month to date precipitation 6.53 2.72  
Year to date precipitation 28.58 27.29  
Snow  
Snow 0.00 in - - ()
Month to date snowfall 0.0  
Since 1 June snowfall 0.0  
Since 1 July snowfall 0.0  
Snow Depth 0.00 in    
Sea Level Pressure  
Sea Level Pressure 30.11 in    
Wind  
Wind Speed 5 mph (East)    
Max Wind Speed 13 mph    
Max Gust Speed 16 mph    
Visibility 9 miles    
Events Rain    
T = Trace of Precipitation, MM = Missing Value Source: NWS Daily Summary

Daily Weather History Graph

Daily Weather History Graph

Search for Another Location

Airport:

Trip Planner

Search our weather history database for the weather conditions in past years. The results will help you decide how hot, cold, wet, or windy it might be!

Date:

Astronomy

Aug. 24, 2014 Rise Set
Actual Time 6:43 AM EDT 8:00 PM EDT
Civil Twilight 6:16 AM EDT 8:27 PM EDT
Nautical Twilight 5:44 AM EDT 8:59 PM EDT
Astronomical Twilight 5:10 AM EDT 9:33 PM EDT
Moon 5:52 AM EDT (8/24) 7:18 PM EDT (8/24)
Length of Visible Light 14h 10m
Length of Day
13h 16m
Waning Crescent, 1% of the Moon is Illuminated
Aug 24
Waning Crescent
Aug 25
New
Sep 2
First Quarter
Sep 8
Full
Sep 15
Last Quarter

Hourly Weather History & Observations

Time (EDT) Temp. Dew Point Humidity Pressure Visibility Wind Dir Wind Speed Gust Speed Precip Events Conditions
12:32 AM 70.0 °F 69.1 °F 97% 30.08 in 8.0 mi ESE 5.8 mph - 0.01 in Rain Light Rain
12:40 AM 70.0 °F 68.0 °F 93% 30.08 in 10.0 mi East 9.2 mph - 0.01 in Rain Light Rain
12:54 AM 70.0 °F 66.9 °F 90% 30.04 in 10.0 mi ENE 9.2 mph - 0.01 in   Overcast
1:54 AM 70.0 °F 66.0 °F 87% 30.05 in 10.0 mi ENE 5.8 mph - 0.00 in Rain Light Rain
2:54 AM 69.1 °F 64.9 °F 87% 30.05 in 10.0 mi NNE 5.8 mph - 0.00 in Rain Light Rain
3:11 AM 68.0 °F 64.9 °F 90% 30.09 in 10.0 mi NNE 8.1 mph - 0.00 in Rain Light Rain
3:54 AM 66.9 °F 64.9 °F 93% 30.04 in 5.0 mi North 6.9 mph - 0.03 in Rain Rain
4:13 AM 66.9 °F 64.9 °F 93% 30.08 in 6.0 mi NNE 4.6 mph - 0.02 in Rain Light Rain
4:54 AM 66.9 °F 64.9 °F 93% 30.04 in 10.0 mi NNE 5.8 mph - 0.04 in Rain Light Rain
5:54 AM 66.9 °F 64.9 °F 93% 30.06 in 10.0 mi ENE 3.5 mph - 0.00 in   Overcast
6:54 AM 66.9 °F 64.0 °F 90% 30.08 in 10.0 mi East 11.5 mph - 0.00 in   Overcast
7:54 AM 66.0 °F 63.0 °F 90% 30.12 in 8.0 mi East 8.1 mph - 0.00 in Rain Light Rain
8:23 AM 64.9 °F 63.0 °F 93% 30.15 in 5.0 mi East 8.1 mph - 0.01 in Rain Light Rain
8:35 AM 64.9 °F 63.0 °F 93% 30.15 in 4.0 mi East 9.2 mph - 0.02 in Rain Light Rain
8:54 AM 64.9 °F 63.0 °F 93% 30.13 in 10.0 mi East 9.2 mph - 0.02 in   Overcast
9:54 AM 66.0 °F 63.0 °F 90% 30.14 in 10.0 mi ESE 6.9 mph - 0.00 in   Overcast
10:54 AM 66.9 °F 62.1 °F 84% 30.15 in 10.0 mi East 5.8 mph - N/A   Overcast
11:54 AM 68.0 °F 63.0 °F 84% 30.16 in 10.0 mi SE 5.8 mph - N/A   Overcast
12:54 PM 70.0 °F 62.1 °F 76% 30.16 in 10.0 mi SE 4.6 mph - N/A   Overcast
1:54 PM 70.0 °F 62.1 °F 76% 30.15 in 10.0 mi ESE 8.1 mph - N/A   Overcast
2:27 PM 71.1 °F 62.1 °F 73% 30.17 in 10.0 mi ESE 9.2 mph - N/A   Overcast
2:34 PM 71.1 °F 63.0 °F 75% 30.17 in 10.0 mi Variable 6.9 mph - N/A   Overcast
2:54 PM 71.1 °F 62.1 °F 73% 30.14 in 10.0 mi ESE 9.2 mph - N/A   Overcast
3:54 PM 72.0 °F 62.1 °F 71% 30.12 in 10.0 mi SSE 8.1 mph - N/A   Overcast
4:54 PM 71.1 °F 61.0 °F 70% 30.11 in 10.0 mi ESE 6.9 mph - N/A   Overcast
5:54 PM 72.0 °F 62.1 °F 71% 30.11 in 10.0 mi Calm Calm - N/A   Mostly Cloudy
6:54 PM 71.1 °F 62.1 °F 73% 30.12 in 10.0 mi Calm Calm - N/A   Overcast
7:54 PM 69.1 °F 64.0 °F 84% 30.13 in 10.0 mi East 5.8 mph - 0.00 in Rain Light Rain
8:54 PM 69.1 °F 62.1 °F 78% 30.13 in 10.0 mi East 4.6 mph - 0.00 in   Overcast
9:54 PM 69.1 °F 64.0 °F 84% 30.15 in 10.0 mi Calm Calm - N/A   Overcast
10:54 PM 69.1 °F 61.0 °F 75% 30.15 in 10.0 mi East 4.6 mph - N/A   Overcast
11:54 PM 69.1 °F 62.1 °F 78% 30.17 in 10.0 mi Calm Calm - N/A   Overcast